SL-16 DEB, 22351

Orbit data source: Space-Track

SL-16 DEB, 22351 is space debris in LEO originally from a launch on Fri, 25 Dec 1992 UTC launched from the Tyuratam Missile And Space Complex (TTMTR). Debris objects in space refer to the collection of defunct objects orbiting the Earth. Examples of debris include non-operational satellites, rocket bodies, and fragments generated from explosions, collisions, or faulty payload assembly.

Loading next visibility...
Identifier
22351, 1992-093AQ
Orbit
LEO
Country
Flag of CISCIS
Related business
Manufacturer
Unknown
Mission
Spacecraft
Bus & Motor
Unknown
Mass
Unknown
Launch date (UTC)
1992-12-25 (33 years ago)
Launch vehicle
Unknown
Launch site
Tyuratam Missile And Space Complex (TTMTR)
Object type
Payload
Rocket body
Debris
Shape & HBR
Unknown shape, 0.1 m
Radar Cross Section
Small (<0.1 m²)

Expand to show TLE details & history
Last TLE update: 21 hours ago

TLE from 21 hours ago
0 SL-16 DEB
1 22351U 92093AQ  25349.93400166  .00000404  00000-0  27264-3 0  9990
2 22351  70.9076 290.0564 0103126   2.7793  63.6958 14.03897133683958
Epoch: 2025-12-15T22:24Z
TLE epoch observation values (Epoch: 2025-12-15T22:24:57.743Z)
Latitude
60.9546°
Longitude
-92.69467°
Altitude
857.638 km
Speed
7.446 km/s
True Right ascension
21h 53m 29s
True Declination
60° 48' 37"
Sunlit
Object was in daylight at epoch
Visualization orbit readout
Latitude
Unknown
Longitude
Unknown
Altitude
Unknown
Speed
Unknown
Apparent Right ascension
Unknown
Apparent Declination
Unknown
Sunlit
N/A
Visualization observer readout
Local Sidereal Time
18:31:19
Azimuth
Unknown
Elevation
Unknown
Doppler factor
Unknown
Orbital elements
Apogee altitude
953.108 km
Perigee altitude
803.443 km
Semi-major axis
7,256.413 km
Eccentricity
0.01031
Inclination
70.9076°
RAAN
290.0564°
Arg. of periapsis
2.7793°
True anomaly
64.7612°
Mean anomaly
63.6958°
Eccentric anomaly
64.2279°
Mean motion
3.51124 °/min
Orbital period
102.53 mins
BSTAR
0.00027264
Loading maneuver chart data...
Computing Atmospheric mass density...
Loading historical data...
Loading historical data...
Loading historical data...
Loading historical data...
Loading historical data...
Loading historical data...
Loading historical data...

Documentation

Showing up to 5 results
|